Tiempo atmosférico en la estación meteorológica de Marbella, Puerto, Málaga (6 m.)



Fecha
DESCASC
Temp. máxima en grados centígrados (hora)
DESCASC
Temp. mínima en grados centígrados (hora)
DESCASC
Temp. media en grados centígrados
DESCASC
Racha de viento máxima en m/sg (hora)
DESCASC
Velocidad máxima media en intervalos de 10 minutos(hora)
DESCASC
Precipitaciones diarias en mm
DESCASC
Precipitaciones de 00:00 a 06:00 en mm
DESCASC
Precipitaciones de 06:00 a 12:00 en mm
DESCASC
Precipitaciones de 12:00 a 18:00 en mm
DESCASC
Precipitaciones de 18:00 a 24:00 en mm
DESCASC
31-03-2020 16.9 (15:00) 13 (04:00) 14.9 12.22 (07:50) 10 (07:50) -- -- -- -- --
30-03-2020 17.5 (17:00) 12 (08:10) 14.8 5.83 (14:00) 5 (13:40) -- 0 -- -- --
29-03-2020 16.2 (10:20) 10.6 (00:00) 13.4 5.28 (19:30) 4.17 (19:10) 0 0 0 0 0
28-03-2020 16.9 (08:50) 12.6 (00:00) 14.8 10.83 (12:40) 8.61 (13:20) 5.2 0 0.8 4.4 0
27-03-2020 17.5 (13:40) 12.3 (00:00) 14.9 9.72 (15:00) 7.5 (19:40) 0 0 0 0 0
26-03-2020 22 (15:10) 10.1 (00:00) 16.1 13.06 (13:50) 10.56 (13:50) 0 0 0 0 0
25-03-2020 14.8 (03:00) 12.5 (00:00) 13.7 8.06 (11:40) 6.39 (11:50) 0 0 0 0 0
24-03-2020 15.7 (18:10) 13.3 (00:00) 14.5 8.33 (14:30) 6.67 (14:30) 0 0 0 0 0
23-03-2020 16.1 (11:30) 10.5 (00:00) 13.3 10.83 (12:30) 9.17 (12:30) 0 0 0 0 0
22-03-2020 14.7 (16:20) 10.7 (08:00) 12.7 4.44 (00:30) 2.78 (12:00) 0 0 0 0 0
21-03-2020 16.2 (09:00) 10.4 (00:00) 13.3 12.22 (00:20) 9.17 (00:20) 7.6 7 0 0.6 0
20-03-2020 16.7 (15:20) 15 (00:00) 15.9 10.56 (23:50) 8.33 (23:50) 4.2 0 0 0 4.2
19-03-2020 17.3 (17:00) 15.8 (00:00) 16.5 11.11 (17:30) 8.61 (17:20) 0 0 0 0 0
18-03-2020 17.5 (15:50) 16.1 (00:00) 16.8 18.61 (01:10) 13.06 (03:10) 0 0 0 0 0
17-03-2020 16.5 (23:20) 9.2 (00:00) 12.8 14.17 (15:10) 11.11 (13:50) 6.8 0 6.8 0 0
16-03-2020 19.3 (15:50) 13.5 (00:00) 16.4 15 (15:30) 9.44 (15:20) 0 0 0 0 0
15-03-2020 17.1 (11:00) 13.8 (00:00) 15.5 7.5 (13:20) 6.39 (13:20) 0 0 0 0 0
14-03-2020 19.1 (10:20) 13 (00:00) 16.1 5 (06:30) 3.33 (14:30) 0 0 0 0 0
13-03-2020 20.5 (15:30) 13.7 (07:30) 17.1 7.78 (20:00) 5.83 (19:50) 0 0 0 0 0
12-03-2020 21.5 (13:00) 14.9 (00:00) 18.2 5.56 (02:30) 4.17 (15:20) 0 0 0 0 0
11-03-2020 20.7 (09:20) 13 (00:00) 16.9 9.72 (15:00) 8.06 (15:00) 0 0 0 0 0
10-03-2020 22 (10:00) 14.1 (00:00) 18.1 13.06 (14:10) 10.83 (14:10) 0 0 0 0 0
09-03-2020 19.8 (11:00) 12.8 (00:00) 16.3 4.72 (22:20) 3.33 (13:20) 0 0 0 0 0
08-03-2020 19.2 (10:10) 10.3 (00:00) 14.8 5.28 (08:10) 4.17 (18:50) 0 0 0 0 0
07-03-2020 20.2 (12:30) 12.4 (00:00) 16.3 10 (03:40) 5.28 (11:20) 0 0 0 0 0
06-03-2020 21.4 (15:50) 12.9 (00:00) 17.1 12.22 (16:10) 5.83 (16:10) 0 0 0 0 0
05-03-2020 20.8 (11:50) 12.9 (00:00) 16.8 16.67 (13:40) 13.33 (13:40) 0 0 0 0 0
04-03-2020 20.9 (16:20) 12.6 (00:00) 16.8 10.28 (00:20) 7.5 (00:20) 0 0 0 0 0

Gráficas

Temp. máximas Temp. mínimas Temp. medias Precipitaciones Rachas de viento máximas Velocidades máximas media en intervalos de 10 minutos

Datos horarios

Fecha y hora oficial Temperatura (ºC) Velocidad del viento (km/h) Dirección del viento Racha (km/h) Dirección de racha Precipitación (mm) Presión (hPa) Tendencia (hPa) Humedad (%)
2020-04-02 23:00:00 12.2 6 Norte 12 Norte -- -- -- 76
2020-04-02 22:00:00 13 4 Oeste 19 Oeste -- -- -- 70
2020-04-02 21:00:00 14 7 Oeste 13 Oeste -- -- -- 73
2020-04-02 20:00:00 13.9 0 Calma 6 Nordeste -- -- -- 65
2020-04-02 19:00:00 13.8 2 Este 12 Este -- -- -- 64
2020-04-02 18:00:00 13.8 6 Sudeste 15 Sudeste -- -- -- 65
2020-04-02 17:00:00 13.4 11 Este 19 Este -- -- -- 66
2020-04-02 16:00:00 13.3 14 Este 21 Nordeste -- -- -- 74
2020-04-02 15:00:00 13 8 Nordeste 18 Noroeste -- -- -- 77
2020-04-02 14:00:00 12.6 12 Sur 36 Sudoeste -- -- -- 80
2020-04-02 13:00:00 12.8 9 Sudeste 14 Sudeste -- -- -- 77
2020-04-02 12:00:00 12.3 4 Norte 10 Norte -- -- -- 79
2020-04-02 11:00:00 11.9 5 Norte 9 Norte -- -- -- 78
2020-04-02 10:00:00 13 3 Norte 8 Nordeste -- -- -- 74
2020-04-02 09:00:00 10.4 4 Oeste 19 Norte -- -- -- 84
2020-04-02 08:00:00 10.2 7 Noroeste 36 Oeste -- -- -- 83
2020-04-02 07:00:00 13.2 24 Sudoeste 28 Sudoeste -- -- -- 86
2020-04-02 06:00:00 13.1 7 Oeste 13 Oeste -- -- -- 82
2020-04-02 05:00:00 13.1 2 Oeste 6 Oeste -- -- -- 81
2020-04-02 04:00:00 13.1 3 Noroeste 9 Oeste -- -- -- 81
2020-04-02 03:00:00 13 4 Oeste 15 Oeste -- -- -- 80
2020-04-02 02:00:00 13.9 10 Oeste 17 Sudoeste -- -- -- 82
2020-04-02 01:00:00 13.6 4 Norte 9 Norte -- -- -- 78
2020-04-02 00:00:00 14 7 Oeste 24 Oeste -- -- -- 77
2020-04-01 23:00:00 14.8 22 Sudoeste 27 Sudoeste -- -- -- 78
2020-04-01 22:00:00 14.6 9 Sudoeste 48 Sudoeste -- -- -- 76
2020-04-01 21:00:00 14.6 8 Oeste 32 Oeste -- -- -- 62
2020-04-01 20:00:00 15.5 27 Oeste 46 Oeste -- -- -- 63
2020-04-01 19:00:00 16.1 36 Sudoeste 50 Sudoeste -- -- -- 63
2020-04-01 18:00:00 16.5 34 Sudoeste 47 Sudoeste -- -- -- 56
2020-04-01 17:00:00 16.6 31 Sudoeste 44 Sudoeste -- -- -- 59
2020-04-01 16:00:00 16.1 30 Sudoeste 36 Sudoeste -- -- -- 78
2020-04-01 15:00:00 15.7 26 Sudoeste 37 Sudoeste -- -- -- 78
2020-04-01 14:00:00 15.8 22 Sudoeste 30 Sudoeste -- -- -- 77
2020-04-01 13:00:00 15.3 15 Sudoeste 19 Sudoeste -- -- -- 78
2020-04-01 12:00:00 15.2 11 Sudoeste 14 Sudoeste -- -- -- 81
2020-04-01 11:00:00 15.5 3 Sudoeste 7 Sur -- -- -- 82
2020-04-01 10:00:00 13.5 4 Norte 9 Norte -- -- -- 90
2020-04-01 09:00:00 12.3 8 Norte 11 Norte -- -- -- 91
2020-04-01 08:00:00 12 8 Norte 14 Norte -- -- -- 91
2020-04-01 07:00:00 12.3 7 Norte 15 Norte -- -- -- 92
2020-04-01 06:00:00 12.5 8 Norte 12 Noroeste -- -- -- 92
2020-04-01 05:00:00 12.5 6 Norte 11 Noroeste -- -- -- 93
2020-04-01 04:00:00 13.2 3 Noroeste 6 Oeste -- -- -- 92
2020-04-01 03:00:00 13.8 3 Norte 7 Oeste -- -- -- 91
2020-04-01 02:00:00 14.1 5 Oeste 9 Oeste -- -- -- 90
2020-04-01 01:00:00 14.6 0 Calma 23 Sudoeste -- -- -- 88
2020-04-01 00:00:00 14.9 9 Oeste 21 Sudoeste -- -- -- 88
2020-03-31 23:00:00 15.2 16 Sudoeste 19 Sudoeste -- -- -- 88
2020-03-31 22:00:00 15 11 Oeste 30 Sudoeste -- -- -- 87
2020-03-31 21:00:00 16 12 Oeste 31 Sudoeste -- -- -- 85
2020-03-31 20:00:00 16 19 Sudoeste 30 Sudoeste -- -- -- 86
2020-03-31 19:00:00 15.8 25 Sudoeste 42 Sudoeste -- -- -- 87
2020-03-31 18:00:00 16 27 Sur 33 Sudoeste -- -- -- 88
2020-03-31 17:00:00 16 18 Sur 31 Sudoeste -- -- -- 87
2020-03-31 16:00:00 15.9 25 Sur 32 Sur -- -- -- 88
2020-03-31 15:00:00 16.9 13 Este 17 Este -- -- -- 85
2020-03-31 14:00:00 16.1 4 Este 20 Sudoeste -- -- -- 87
2020-03-31 13:00:00 14.7 13 Sudoeste 26 Sudoeste -- -- -- 92
2020-03-31 12:00:00 14 24 Sur 33 Sudoeste -- -- -- 91
2020-03-31 11:00:00 14.8 30 Sudoeste 39 Sudoeste -- -- -- 92
2020-03-31 10:00:00 14.3 14 Oeste 31 Sudoeste -- -- -- 95
2020-03-31 09:00:00 14.3 30 Sudoeste 41 Sur -- -- -- 92
2020-03-31 08:00:00 14.8 32 Sur 44 Sur -- -- -- 90
2020-03-31 07:00:00 14.6 15 Sudeste 24 Sudeste -- -- -- 90
2020-03-31 06:00:00 13.2 16 Este 36 Este -- -- -- 92
2020-03-31 05:00:00 13.5 31 Este 41 Este -- -- -- 90
2020-03-31 04:00:00 13 10 Nordeste 33 Sudeste -- -- -- 89
2020-03-31 03:00:00 13.7 23 Este 30 Este -- -- -- 92
2020-03-31 02:00:00 14.1 11 Sur 21 Sudeste -- -- -- 91
2020-03-31 01:00:00 15 12 Sur 22 Sudoeste -- -- -- 90
2020-03-31 00:00:00 15.9 12 Sudoeste 16 Nordeste -- -- -- 84
2020-03-30 23:00:00 15.9 7 Este 10 Este -- -- -- 85
2020-03-30 22:00:00 16 7 Nordeste 12 Este -- -- -- 83
2020-03-30 21:00:00 15.9 9 Este 14 Este -- -- -- 83
2020-03-30 20:00:00 16.1 11 Nordeste 15 Este -- -- -- 81
2020-03-30 19:00:00 16.3 7 Sudeste 10 Sudeste -- -- -- 78
2020-03-30 18:00:00 16.4 6 Sudeste 9 Sudeste -- -- -- 78
2020-03-30 17:00:00 17.5 0 Calma 11 Sudoeste -- -- -- 72
2020-03-30 16:00:00 16.6 10 Sudoeste 18 Sur -- -- -- 76
2020-03-30 15:00:00 16.2 13 Sudoeste 21 Sudoeste -- -- -- 81
2020-03-30 14:00:00 16.3 17 Sudoeste 21 Sudoeste -- -- -- 77
2020-03-30 13:00:00 16.4 5 Sur 12 Sudoeste -- -- -- 70
2020-03-30 12:00:00 15.6 5 Sur 8 Sur -- -- -- 74
2020-03-30 11:00:00 15.1 3 Sur 5 Este -- -- -- 76
2020-03-30 10:00:00 14.9 3 Norte 10 Norte -- -- -- 76
2020-03-30 09:00:00 13.2 7 Norte 13 Norte 0 -- -- 80
2020-03-30 08:00:00 12.1 8 Noroeste 11 Norte 0 -- -- 86
2020-03-30 07:00:00 12.4 8 Norte 12 Norte 0 -- -- 86
2020-03-30 06:00:00 12.6 8 Noroeste 10 Noroeste 0 -- -- 85
2020-03-30 05:00:00 13.1 8 Norte 10 Noroeste 0 -- -- 85
2020-03-30 04:00:00 13.5 7 Norte 13 Norte 0 -- -- 85
2020-03-30 03:00:00 13.5 6 Norte 10 Norte 0 -- -- 86
2020-03-30 02:00:00 14 5 Norte 9 Noroeste 0 -- -- 85
2020-03-30 01:00:00 14.4 4 Norte 7 Norte 0 -- -- 84
2020-03-30 00:00:00 14.5 5 Norte 7 Norte 0 -- -- 83
2020-03-29 23:00:00 15 3 Oeste 8 Oeste 0 -- -- 80
2020-03-29 22:00:00 15.5 5 Oeste 13 Sudoeste 0 -- -- 78
2020-03-29 21:00:00 15.4 5 Oeste 13 Oeste 0 -- -- 76
2020-03-29 20:00:00 15.7 13 Sudoeste 19 Oeste 0 -- -- 77
2020-03-29 19:00:00 15.6 14 Sudoeste 16 Sudoeste 0 -- -- 75
2020-03-29 18:00:00 15.5 5 Sur 11 Sudoeste 0 -- -- 73
2020-03-29 17:00:00 15.7 8 Sur 12 Sudoeste 0 -- -- 71
2020-03-29 16:00:00 15.5 9 Sur 12 Sur 0 -- -- 73
2020-03-29 15:00:00 15.4 8 Sur 12 Sur 0 -- -- 73
2020-03-29 14:00:00 15.2 8 Sur 11 Sur 0 -- -- 74
2020-03-29 13:00:00 15.2 6 Sur 12 Sur 0 -- -- 74
2020-03-29 12:00:00 15.2 7 Sudoeste 9 Sudoeste 0 -- -- 72
2020-03-29 11:00:00 15.6 4 Sudoeste 6 Sudoeste 0 -- -- 66
2020-03-29 10:00:00 15 6 Noroeste 15 Norte 0 -- -- 70
2020-03-29 09:00:00 12.3 12 Noroeste 17 Noroeste 0 -- -- 79
2020-03-29 08:00:00 10.8 11 Norte 18 Noroeste 0 -- -- 86
2020-03-29 07:00:00 10.8 11 Norte 15 Norte 0 -- -- 87
2020-03-29 06:00:00 11.1 10 Norte 14 Noroeste 0 -- -- 87
2020-03-29 05:00:00 11.6 9 Norte 15 Norte 0 -- -- 85
2020-03-29 03:00:00 12 11 Norte 17 Norte 0 -- -- 83
2020-03-29 01:00:00 12.5 12 Norte 17 Norte 0 -- -- 83
2020-03-29 00:00:00 12.9 8 Norte 13 Nordeste 0 -- -- 80
2020-03-28 23:00:00 13.6 9 Norte 15 Nordeste 0 -- -- 77
2020-03-28 22:00:00 14 14 Nordeste 22 Este 0 -- -- 78
2020-03-28 21:00:00 14.3 18 Este 25 Este 0 -- -- 78
2020-03-28 20:00:00 14.5 21 Este 26 Este 0 -- -- 79
2020-03-28 19:00:00 14.8 19 Este 24 Este 0 -- -- 79
2020-03-28 18:00:00 15 19 Este 26 Este 0 -- -- 78
2020-03-28 17:00:00 15 19 Este 30 Este 0 -- -- 78
2020-03-28 16:00:00 14.3 23 Este 32 Este 0 -- -- 82
2020-03-28 15:00:00 14.2 25 Este 34 Este 0 -- -- 83
2020-03-28 14:00:00 14.3 28 Este 39 Este 0.2 -- -- 83
2020-03-28 13:00:00 13.9 30 Este 39 Este 4.2 -- -- 89
2020-03-28 12:00:00 13.8 23 Este 33 Este 0.8 -- -- 90
2020-03-28 11:00:00 16.2 19 Este 32 Este 0 -- -- 76
2020-03-28 10:00:00 16.1 24 Este 30 Este 0 -- -- 78
2020-03-28 09:00:00 15.9 13 Este 19 Este 0 -- -- 77
2020-03-28 08:00:00 13.9 7 Norte 14 Norte 0 -- -- 77
2020-03-28 07:00:00 13 8 Norte 14 Norte 0 -- -- 80
2020-03-28 06:00:00 13 8 Norte 13 Norte 0 -- -- 80
2020-03-28 05:00:00 12.7 7 Norte 12 Norte 0 -- -- 82
2020-03-28 04:00:00 13 4 Noroeste 14 Norte 0 -- -- 80
2020-03-28 03:00:00 13.4 8 Norte 16 Norte 0 -- -- 80
2020-03-28 02:00:00 13.4 14 Norte 19 Norte 0 -- -- 79
2020-03-28 01:00:00 14.1 12 Norte 16 Norte 0 -- -- 78
2020-03-28 00:00:00 14.7 12 Norte 23 Nordeste 0 -- -- 79
2020-03-27 23:00:00 15 14 Nordeste 23 Nordeste 0 -- -- 79
2020-03-27 22:00:00 15.1 14 Nordeste 24 Nordeste 0 -- -- 82
2020-03-27 21:00:00 15.2 19 Nordeste 28 Este 0 -- -- 83
2020-03-27 20:00:00 15.2 24 Este 33 Este 0 -- -- 84
2020-03-27 19:00:00 15.7 25 Este 32 Este 0 -- -- 83
2020-03-27 18:00:00 16 22 Este 27 Este 0 -- -- 79
2020-03-27 17:00:00 16.6 15 Este 27 Este 0 -- -- 76
2020-03-27 16:00:00 17 12 Este 31 Sudoeste 0 -- -- 71
2020-03-27 15:00:00 16.6 26 Sudoeste 35 Sudoeste 0 -- -- 72
2020-03-27 14:00:00 17.3 24 Sudoeste 33 Sudoeste 0 -- -- 63
2020-03-27 13:00:00 16.3 21 Sudoeste 30 Sudoeste 0 -- -- 72
2020-03-27 12:00:00 15.9 26 Sudoeste 30 Sudoeste 0 -- -- 77
2020-03-27 11:00:00 15.8 10 Sur 19 Este 0 -- -- 79
2020-03-27 10:00:00 16.4 16 Este 26 Este 0 -- -- 75
2020-03-27 09:00:00 14.5 10 Norte 16 Norte 0 -- -- 66
2020-03-27 08:00:00 13.1 8 Norte 21 Norte 0 -- -- 73
2020-03-27 07:00:00 12.4 14 Norte 21 Norte 0 -- -- 72
2020-03-27 06:00:00 13.3 10 Norte 17 Nordeste 0 -- -- 74
2020-03-27 05:00:00 13.4 6 Sudoeste 9 Sur 0 -- -- 76
2020-03-27 04:00:00 12.7 4 Oeste 14 Norte 0 -- -- 74
2020-03-27 03:00:00 13.6 7 Oeste 16 Norte 0 -- -- 72
2020-03-27 02:00:00 14.1 6 Oeste 14 Noroeste 0 -- -- 70
2020-03-27 01:00:00 14.3 8 Noroeste 21 Oeste 0 -- -- 67
2020-03-27 00:00:00 14.8 18 Oeste 29 Sudoeste 0 -- -- 75
2020-03-26 23:00:00 15.4 21 Oeste 30 Oeste 0 -- -- 75
2020-03-26 22:00:00 15.9 21 Oeste 31 Sudoeste 0 -- -- 76
2020-03-26 21:00:00 16.5 13 Oeste 31 Sudoeste 0 -- -- 73
2020-03-26 20:00:00 17.5 17 Oeste 27 Oeste 0 -- -- 59
2020-03-26 19:00:00 19.3 17 Oeste 32 Oeste 0 -- -- 44
2020-03-26 18:00:00 20.2 14 Oeste 42 Oeste 0 -- -- 41
2020-03-26 17:00:00 20.2 30 Oeste 47 Oeste 0 -- -- 42
2020-03-26 16:00:00 21.6 23 Oeste 40 Oeste 0 -- -- 43
2020-03-26 15:00:00 21.5 26 Oeste 45 Oeste 0 -- -- 40
2020-03-26 14:00:00 19.6 32 Sudoeste 47 Sudoeste 0 -- -- 49
2020-03-26 13:00:00 20.2 19 Oeste 45 Sudoeste 0 -- -- 51
2020-03-26 12:00:00 17.4 18 Sudoeste 26 Sudoeste 0 -- -- 70
2020-03-26 11:00:00 15.3 5 Sur 15 Sudoeste 0 -- -- 76
2020-03-26 10:00:00 14.5 5 Sudeste 16 Oeste 0 -- -- 76
2020-03-26 09:00:00 15.2 8 Oeste 13 Norte 0 -- -- 75
2020-03-26 08:00:00 11.1 11 Noroeste 15 Noroeste 0 -- -- 85
2020-03-26 07:00:00 10.2 9 Norte 14 Norte 0 -- -- 87
2020-03-26 06:00:00 10.3 12 Norte 15 Norte 0 -- -- 86
2020-03-26 05:00:00 10.5 9 Norte 14 Norte 0 -- -- 86
2020-03-26 04:00:00 10.5 10 Norte 15 Norte 0 -- -- 86
2020-03-26 03:00:00 10.7 10 Norte 14 Norte 0 -- -- 86
2020-03-26 02:00:00 11.2 9 Norte 12 Norte 0 -- -- 86
2020-03-26 01:00:00 12.1 9 Norte 13 Norte 0 -- -- 83
2020-03-26 00:00:00 12.6 6 Norte 9 Nordeste 0 -- -- 83
2020-03-25 23:00:00 12.9 4 Noroeste 8 Noroeste 0 -- -- 81
2020-03-25 22:00:00 13.7 5 Noroeste 7 Norte 0 -- -- 78
2020-03-25 21:00:00 13.8 0 Calma 4 Sudeste 0 -- -- 75
2020-03-25 20:00:00 13.9 4 Sur 9 Sur 0 -- -- 75
2020-03-25 19:00:00 14 4 Sudoeste 6 Sudoeste 0 -- -- 72
2020-03-25 18:00:00 14.5 2 Este 10 Sudeste 0 -- -- 70
2020-03-25 17:00:00 14.1 7 Sudeste 12 Sudeste 0 -- -- 74
2020-03-25 16:00:00 14.2 7 Sudeste 13 Este 0 -- -- 69
2020-03-25 15:00:00 14.6 8 Este 15 Nordeste 0 -- -- 71
2020-03-25 14:00:00 14.3 12 Nordeste 20 Este 0 -- -- 74
2020-03-25 13:00:00 13.9 17 Este 25 Este 0 -- -- 73
2020-03-25 12:00:00 13.8 21 Este 29 Este 0 -- -- 75
2020-03-25 11:00:00 13.9 7 Noroeste 10 Noroeste 0 -- -- 85
2020-03-25 10:00:00 13 6 Norte 13 Noroeste 0 -- -- 90
2020-03-25 09:00:00 13 9 Noroeste 15 Noroeste 0 -- -- 89
2020-03-25 08:00:00 12.6 7 Norte 14 Norte 0 -- -- 92
2020-03-25 07:00:00 13.2 11 Nordeste 21 Este 0 -- -- 88
2020-03-25 06:00:00 13.6 12 Este 21 Este 0 -- -- 91
2020-03-25 05:00:00 14.7 11 Sur 15 Sur 0 -- -- 88
2020-03-25 04:00:00 14.5 3 Noroeste 6 Oeste 0 -- -- 86
2020-03-25 03:00:00 14.8 3 Oeste 9 Noroeste 0 -- -- 84
2020-03-25 02:00:00 14.5 2 Noroeste 8 Noroeste 0 -- -- 86
2020-03-25 01:00:00 14.5 3 Noroeste 9 Noroeste 0 -- -- 87
2020-03-25 00:00:00 14.5 4 Noroeste 8 Noroeste 0 -- -- 87
2020-03-24 23:00:00 14.8 3 Noroeste 13 Sudoeste 0 -- -- 86
2020-03-24 22:00:00 15.3 9 Sudoeste 11 Sudoeste 0 -- -- 83
2020-03-24 21:00:00 15.2 2 Sudoeste 11 Oeste 0 -- -- 83
2020-03-24 20:00:00 15.1 6 Oeste 9 Oeste 0 -- -- 84
2020-03-24 19:00:00 15.4 8 Oeste 17 Sudoeste 0 -- -- 88
2020-03-24 18:00:00 15.5 4 Oeste 15 Sudoeste 0 -- -- 85
2020-03-24 17:00:00 15 11 Oeste 24 Sudoeste 0 -- -- 86
2020-03-24 16:00:00 15.5 14 Sudoeste 23 Sudoeste 0 -- -- 85
2020-03-24 15:00:00 15.1 18 Sudoeste 30 Sudoeste 0 -- -- 88
2020-03-24 14:00:00 15 17 Sudoeste 21 Sudoeste 0 -- -- 85
2020-03-24 13:00:00 15.3 12 Sudoeste 15 Sudoeste 0 -- -- 83
2020-03-24 12:00:00 15.1 11 Sudoeste 23 Sudoeste 0 -- -- 83
2020-03-24 11:00:00 14.8 20 Sudoeste 23 Sudoeste 0 -- -- 85
2020-03-24 10:00:00 14.4 5 Oeste 21 Norte 0 -- -- 85
2020-03-24 09:00:00 14.1 2 Sudoeste 22 Noroeste 0 -- -- 83
2020-03-24 08:00:00 13.3 5 Norte 17 Noroeste 0 -- -- 84
2020-03-24 07:00:00 14.1 6 Noroeste 20 Sudoeste 0 -- -- 77
2020-03-24 06:00:00 14.5 7 Norte 15 Norte 0 -- -- 67
2020-03-24 05:00:00 15 5 Norte 15 Noroeste 0 -- -- 64
2020-03-24 04:00:00 14.2 4 Oeste 11 Noroeste 0 -- -- 68
2020-03-24 03:00:00 14.3 9 Norte 17 Norte 0 -- -- 65
2020-03-24 02:00:00 14.4 6 Norte 16 Noroeste 0 -- -- 64
2020-03-24 01:00:00 14 6 Norte 14 Noroeste 0 -- -- 70
2020-03-24 00:00:00 15 8 Norte 16 Este 0 -- -- 65
2020-03-23 23:00:00 14.7 6 Norte 13 Noroeste 0 -- -- 64
2020-03-23 22:00:00 14.2 11 Norte 18 Norte 0 -- -- 66
2020-03-23 21:00:00 13.8 9 Norte 15 Norte 0 -- -- 71
2020-03-23 20:00:00 13.5 4 Noroeste 18 Norte 0 -- -- 73
2020-03-23 19:00:00 13.6 9 Norte 19 Norte 0 -- -- 75
2020-03-23 18:00:00 13.7 5 Nordeste 22 Nordeste 0 -- -- 81
2020-03-23 17:00:00 13.3 18 Nordeste 28 Este 0 -- -- 83
2020-03-23 16:00:00 13.7 22 Este 31 Este 0 -- -- 80
2020-03-23 15:00:00 14.1 24 Este 36 Este 0 -- -- 76
2020-03-23 14:00:00 15 24 Este 36 Este 0 -- -- 72
2020-03-23 13:00:00 14.9 28 Este 39 Este 0 -- -- 75
2020-03-23 12:00:00 14.7 22 Este 31 Este 0 -- -- 76
2020-03-23 11:00:00 14.5 5 Norte 12 Norte 0 -- -- 72
2020-03-23 10:00:00 13.4 4 Norte 14 Norte 0 -- -- 75
2020-03-23 09:00:00 12.4 12 Norte 19 Norte 0 -- -- 76
2020-03-23 08:00:00 11.1 11 Norte 18 Norte 0 -- -- 82
2020-03-23 07:00:00 10.9 10 Norte 18 Norte 0 -- -- 84
2020-03-23 06:00:00 10.8 11 Norte 18 Norte 0 -- -- 83
2020-03-23 05:00:00 10.7 12 Norte 18 Norte 0 -- -- 83
2020-03-23 04:00:00 10.5 10 Norte 15 Norte 0 -- -- 87
2020-03-23 03:00:00 10.8 10 Norte 16 Norte 0 -- -- 87
2020-03-23 02:00:00 11.4 9 Norte 16 Noroeste 0 -- -- 85
2020-03-23 01:00:00 12 8 Norte 15 Noroeste 0 -- -- 85
2020-03-23 00:00:00 12.3 9 Noroeste 14 Noroeste 0 -- -- 84
2020-03-22 23:00:00 12.7 9 Norte 15 Norte 0 -- -- 85
2020-03-22 22:00:00 13.2 6 Noroeste 12 Norte 0 -- -- 84
2020-03-22 21:00:00 13 7 Norte 12 Norte 0 -- -- 85
2020-03-22 20:00:00 13.7 5 Nordeste 8 Nordeste 0 -- -- 80
2020-03-22 19:00:00 14 3 Este 5 Este 0 -- -- 77
2020-03-22 18:00:00 14 3 Sudoeste 6 Sur 0 -- -- 78
2020-03-22 17:00:00 14.7 3 Sudoeste 11 Sudoeste 0 -- -- 77
2020-03-22 16:00:00 14.1 7 Sudoeste 13 Sur 0 -- -- 76
2020-03-22 15:00:00 14.2 9 Sur 12 Sur 0 -- -- 78
2020-03-22 14:00:00 14.6 6 Sur 13 Sur 0 -- -- 75
2020-03-22 13:00:00 14.2 8 Sudeste 13 Sudeste 0 -- -- 78
2020-03-22 12:00:00 13.4 10 Sur 14 Sudeste 0 -- -- 82
2020-03-22 11:00:00 13.4 9 Sudeste 12 Sudeste 0 -- -- 80
2020-03-22 10:00:00 14.2 0 Calma 11 Norte 0 -- -- 85
2020-03-22 09:00:00 11 7 Norte 13 Norte 0 -- -- 92
2020-03-22 08:00:00 10.7 8 Norte 11 Norte 0 -- -- 91
2020-03-22 07:00:00 10.9 5 Norte 14 Norte 0 -- -- 91
2020-03-22 06:00:00 11.1 6 Norte 9 Noroeste 0 -- -- 92
2020-03-22 05:00:00 11.1 5 Noroeste 9 Norte 0 -- -- 92
2020-03-22 04:00:00 11.1 4 Noroeste 10 Norte 0 -- -- 93
2020-03-22 03:00:00 11.4 6 Norte 9 Norte 0 -- -- 92
2020-03-22 02:00:00 11.7 0 Calma 11 Norte 0 -- -- 92
2020-03-22 01:00:00 11.8 5 Norte 16 Oeste 0 -- -- 92
2020-03-22 00:00:00 11.9 7 Noroeste 12 Noroeste 0 -- -- 92
2020-03-21 23:00:00 12 7 Norte 13 Norte 0 -- -- 92
2020-03-21 22:00:00 12.3 4 Norte 9 Norte 0 -- -- 90
2020-03-21 21:00:00 12.3 4 Norte 9 Norte 0 -- -- 89
2020-03-21 20:00:00 12.4 5 Norte 15 Oeste 0 -- -- 88
2020-03-21 19:00:00 13.1 14 Oeste 32 Sudoeste 0 -- -- 86
2020-03-21 18:00:00 12.3 0 Calma 23 Sudoeste 0 -- -- 88
2020-03-21 17:00:00 12.8 19 Oeste 33 Oeste 0.4 -- -- 89
2020-03-21 16:00:00 13.5 13 Oeste 32 Oeste 0 -- -- 79
2020-03-21 15:00:00 15.3 12 Oeste 26 Oeste 0.2 -- -- 75
2020-03-21 14:00:00 15.2 11 Sudoeste 18 Sudoeste 0 -- -- 76
2020-03-21 13:00:00 15 10 Sur 22 Sudoeste 0 -- -- 73
2020-03-21 12:00:00 14.4 18 Sudoeste 35 Sudoeste 0 -- -- 79
2020-03-21 11:00:00 14.5 17 Sudoeste 22 Sudoeste 0 -- -- 76
2020-03-21 10:00:00 14.4 14 Sudoeste 17 Sudoeste 0 -- -- 78
2020-03-21 09:00:00 16.2 0 Calma 10 Noroeste 0 -- -- 76
2020-03-21 08:00:00 11 7 Norte 12 Norte 0 -- -- 93
2020-03-21 07:00:00 11.3 5 Norte 9 Norte 0 -- -- 95
2020-03-21 06:00:00 12.4 4 Norte 8 Norte 0 -- -- 95
2020-03-21 05:00:00 12.6 3 Nordeste 5 Noroeste 0 -- -- 95
2020-03-21 04:00:00 12.4 3 Noroeste 12 Oeste 0 -- -- 95
2020-03-21 03:00:00 12.6 6 Oeste 33 Sur 4 -- -- 95
2020-03-21 02:00:00 15.1 27 Sudeste 40 Sudeste 2.8 -- -- 94
2020-03-21 01:00:00 15 30 Sudeste 44 Este 0.2 -- -- 94
2020-03-21 00:00:00 15.2 28 Este 38 Este 4.2 -- -- 93
2020-03-20 23:00:00 15.2 21 Nordeste 33 Este 0 -- -- 90
2020-03-20 22:00:00 15.1 27 Este 34 Este 0 -- -- 91
2020-03-20 21:00:00 15.2 27 Este 33 Este 0 -- -- 89
2020-03-20 20:00:00 15.5 20 Este 27 Este 0 -- -- 87
2020-03-20 19:00:00 15.6 21 Este 27 Este 0 -- -- 85
2020-03-20 18:00:00 16 3 Sudeste 8 Sudoeste 0 -- -- 75
2020-03-20 17:00:00 16.2 7 Sudoeste 9 Sudoeste 0 -- -- 75
2020-03-20 16:00:00 16.6 4 Sur 9 Este 0 -- -- 72
2020-03-20 15:00:00 16.2 8 Este 18 Este 0 -- -- 75
2020-03-20 14:00:00 15.9 15 Este 28 Este 0 -- -- 78
2020-03-20 13:00:00 16.2 23 Este 29 Este 0 -- -- 77
2020-03-20 12:00:00 16.1 21 Este 29 Este 0 -- -- 76
2020-03-20 11:00:00 16.1 18 Este 26 Este 0 -- -- 77
2020-03-20 10:00:00 15.4 15 Nordeste 28 Nordeste 0 -- -- 79
2020-03-20 09:00:00 15.2 21 Este 30 Nordeste 0 -- -- 79
2020-03-20 08:00:00 15.4 17 Nordeste 23 Este 0 -- -- 76
2020-03-20 07:00:00 15.4 20 Este 27 Este 0 -- -- 78
2020-03-20 06:00:00 15.6 19 Este 25 Este 0 -- -- 77
2020-03-20 05:00:00 15.6 12 Nordeste 19 Nordeste 0 -- -- 75
2020-03-20 04:00:00 15.5 14 Nordeste 26 Nordeste 0 -- -- 73
2020-03-20 03:00:00 15.7 21 Nordeste 31 Nordeste 0 -- -- 72
2020-03-20 02:00:00 15.7 25 Este 33 Este 0 -- -- 77
2020-03-20 01:00:00 15.8 26 Este 36 Este 0 -- -- 76
2020-03-20 00:00:00 15.8 22 Este 31 Este 0 -- -- 80
2020-03-19 23:00:00 15.8 18 Este 26 Este 0 -- -- 81
2020-03-19 22:00:00 15.8 15 Este 24 Este 0 -- -- 81
2020-03-19 21:00:00 15.9 19 Nordeste 32 Nordeste 0 -- -- 80
2020-03-19 20:00:00 16.2 25 Nordeste 36 Nordeste 0 -- -- 76
2020-03-19 19:00:00 16.5 25 Nordeste 38 Este 0 -- -- 74
2020-03-19 18:00:00 16.6 27 Este 40 Este 0 -- -- 76
2020-03-19 17:00:00 17.3 27 Este 39 Este 0 -- -- 71
2020-03-19 16:00:00 16.4 27 Este 35 Nordeste 0 -- -- 76
2020-03-19 15:00:00 16.4 20 Este 32 Este 0 -- -- 77
2020-03-19 14:00:00 16.2 25 Este 34 Nordeste 0 -- -- 76
2020-03-19 13:00:00 16.2 24 Este 37 Este 0 -- -- 78
2020-03-19 12:00:00 16.3 26 Este 39 Este 0 -- -- 76
2020-03-19 11:00:00 16.6 26 Este 35 Este 0 -- -- 75
2020-03-19 10:00:00 16.3 26 Este 33 Este 0 -- -- 75
2020-03-19 09:00:00 16.1 21 Nordeste 29 Nordeste 0 -- -- 76
2020-03-19 08:00:00 15.9 18 Nordeste 32 Nordeste 0 -- -- 77
2020-03-19 07:00:00 15.9 17 Nordeste 24 Nordeste 0 -- -- 77
2020-03-19 06:00:00 15.9 15 Nordeste 22 Nordeste 0 -- -- 77
2020-03-19 05:00:00 16 13 Nordeste 20 Nordeste 0 -- -- 79
2020-03-19 04:00:00 16.1 13 Nordeste 25 Nordeste 0 -- -- 78
2020-03-19 03:00:00 16 12 Nordeste 17 Este 0 -- -- 79
2020-03-19 02:00:00 15.8 14 Este 26 Este 0 -- -- 82
2020-03-19 01:00:00 16.1 19 Este 36 Nordeste 0 -- -- 80
2020-03-19 00:00:00 16.1 19 Este 32 Este 0 -- -- 81
2020-03-18 23:00:00 16.5 19 Este 35 Sudeste 0 -- -- 75
2020-03-18 22:00:00 16.7 18 Nordeste 28 Este 0 -- -- 74
2020-03-18 21:00:00 16.6 22 Nordeste 31 Este 0 -- -- 73
2020-03-18 20:00:00 16.7 23 Este 36 Este 0 -- -- 73
2020-03-18 19:00:00 17 24 Este 39 Este 0 -- -- 73
2020-03-18 18:00:00 17.3 28 Este 40 Este 0 -- -- 71
2020-03-18 17:00:00 17.3 27 Este 42 Este 0 -- -- 72
2020-03-18 16:00:00 17.3 33 Este 41 Este 0 -- -- 71
2020-03-18 15:00:00 17.4 27 Este 49 Este 0 -- -- 74
2020-03-18 14:00:00 17 34 Este 48 Este 0 -- -- 75
2020-03-18 13:00:00 17.3 32 Este 53 Este 0 -- -- 76
2020-03-18 12:00:00 16.6 41 Nordeste 54 Nordeste 0 -- -- 76
2020-03-18 11:00:00 16.4 34 Este 62 Este 0 -- -- 79
2020-03-18 10:00:00 16.5 39 Este 58 Este 0 -- -- 76
2020-03-18 09:00:00 16.6 35 Este 51 Este 0 -- -- 74
2020-03-18 08:00:00 16.6 32 Este 46 Este 0 -- -- 78
2020-03-18 07:00:00 16.6 26 Nordeste 39 Nordeste 0 -- -- 78
2020-03-18 06:00:00 16.6 28 Nordeste 35 Nordeste 0 -- -- 78
2020-03-18 05:00:00 16.7 23 Este 48 Este 0 -- -- 78
2020-03-18 04:00:00 17 22 Este 67 Este 0 -- -- 75
2020-03-18 03:00:00 16.8 44 Este 59 Este 0 -- -- 77
2020-03-18 02:00:00 16.4 39 Este 67 Nordeste 0 -- -- 82
2020-03-18 01:00:00 16.8 42 Este 66 Este 0 -- -- 80
2020-03-18 00:00:00 16.5 28 Este 37 Este 0 -- -- 79
2020-03-17 23:00:00 16.4 25 Nordeste 39 Nordeste 0 -- -- 77
2020-03-17 22:00:00 16.3 22 Nordeste 43 Nordeste 0 -- -- 76
2020-03-17 21:00:00 15.6 20 Nordeste 28 Nordeste 0 -- -- 79
2020-03-17 20:00:00 15.3 21 Este 30 Nordeste 0 -- -- 79
2020-03-17 19:00:00 15.1 22 Nordeste 32 Nordeste 0 -- -- 81
2020-03-17 18:00:00 15.2 24 Nordeste 43 Este 0 -- -- 80
2020-03-17 17:00:00 15.6 34 Este 44 Este 0 -- -- 78
2020-03-17 16:00:00 15.6 35 Este 51 Este 0 -- -- 70
2020-03-17 15:00:00 15.8 35 Este 49 Este 0 -- -- 68
2020-03-17 14:00:00 15.5 40 Este 50 Este 0 -- -- 70
2020-03-17 13:00:00 15.5 31 Este 40 Este 0 -- -- 68
2020-03-17 12:00:00 14.9 26 Este 33 Este 0 -- -- 67
2020-03-17 11:00:00 13.7 8 Norte 22 Norte 0 -- -- 68
2020-03-17 10:00:00 10.2 13 Norte 27 Norte 0 -- -- 78
2020-03-17 09:00:00 9.3 14 Norte 29 Norte 0 -- -- 83
2020-03-17 08:00:00 9.6 13 Noroeste 21 Noroeste 5.4 -- -- 86
2020-03-17 07:00:00 9.6 11 Noroeste 48 Sudoeste 1.4 -- -- 84
2020-03-17 06:00:00 12.1 6 Norte 12 Norte 0 -- -- 63
2020-03-17 05:00:00 12.3 5 Norte 7 Norte 0 -- -- 58
2020-03-17 04:00:00 12.1 5 Norte 12 Oeste 0 -- -- 60
2020-03-17 03:00:00 12.5 4 Oeste 9 Oeste 0 -- -- 56
2020-03-17 02:00:00 13 6 Oeste 15 Oeste 0 -- -- 51
2020-03-17 01:00:00 12.9 4 Oeste 8 Noroeste 0 -- -- 51
2020-03-17 00:00:00 13.5 3 Oeste 17 Noroeste 0 -- -- 50
2020-03-16 23:00:00 13.9 10 Noroeste 17 Norte 0 -- -- 46
2020-03-16 22:00:00 14.6 3 Noroeste 14 Oeste 0 -- -- 43
2020-03-16 21:00:00 15.1 9 Oeste 15 Oeste 0 -- -- 46
2020-03-16 20:00:00 15.4 0 Calma 15 Noroeste 0 -- -- 43
2020-03-16 19:00:00 16.5 9 Noroeste 30 Oeste 0 -- -- 34
2020-03-16 18:00:00 17 11 Noroeste 37 Oeste 0 -- -- 32
2020-03-16 17:00:00 18.6 17 Oeste 33 Oeste 0 -- -- 36
2020-03-16 16:00:00 18.1 13 Noroeste 54 Sudoeste 0 -- -- 28
2020-03-16 15:00:00 18.5 9 Noroeste 30 Norte 0 -- -- 30
2020-03-16 14:00:00 17.7 18 Norte 39 Noroeste 0 -- -- 23
2020-03-16 13:00:00 18 15 Noroeste 36 Oeste 0 -- -- 21
2020-03-16 12:00:00 17.7 13 Noroeste 34 Oeste 0 -- -- 24
2020-03-16 11:00:00 17.4 11 Noroeste 36 Noroeste 0 -- -- 26
2020-03-16 10:00:00 15.8 4 Noroeste 12 Este 0 -- -- 37
2020-03-16 09:00:00 14.9 9 Sudeste 17 Este 0 -- -- 72
2020-03-16 08:00:00 14.8 4 Noroeste 8 Norte 0 -- -- 85
2020-03-16 07:00:00 14.7 4 Norte 11 Norte 0 -- -- 82
2020-03-16 06:00:00 14.4 6 Norte 11 Norte 0 -- -- 86
2020-03-16 05:00:00 14.5 0 Calma 7 Norte 0 -- -- 86
2020-03-16 04:00:00 14.3 2 Norte 8 Oeste 0 -- -- 87
2020-03-16 03:00:00 14.4 7 Oeste 14 Sudoeste 0 -- -- 88
2020-03-16 02:00:00 13.9 8 Norte 13 Noroeste 0 -- -- 86
2020-03-16 01:00:00 14 5 Oeste 8 Oeste 0 -- -- 87
2020-03-16 00:00:00 14.4 2 Noroeste 5 Noroeste 0 -- -- 89
2020-03-15 23:00:00 15.2 0 Calma 4 Sudoeste 0 -- -- 86
2020-03-15 22:00:00 15.6 0 Calma 6 Noroeste 0 -- -- 84
2020-03-15 21:00:00 15.5 2 Este 6 Sudeste 0 -- -- 86
2020-03-15 20:00:00 15.6 3 Sudeste 6 Este 0 -- -- 86
2020-03-15 19:00:00 15.7 6 Sudeste 10 Sudeste 0 -- -- 84
2020-03-15 18:00:00 16.1 6 Sudeste 12 Este 0 -- -- 83
2020-03-15 17:00:00 16.2 11 Este 16 Este 0 -- -- 84
2020-03-15 16:00:00 16 12 Este 23 Sudeste 0 -- -- 84
2020-03-15 15:00:00 16.4 16 Sudeste 24 Sudeste 0 -- -- 82
2020-03-15 14:00:00 15.9 18 Sudeste 27 Este 0 -- -- 86
2020-03-15 13:00:00 16.1 20 Este 25 Este 0 -- -- 87
2020-03-15 12:00:00 16.2 16 Este 21 Este 0 -- -- 84
2020-03-15 11:00:00 17.1 12 Este 19 Nordeste 0 -- -- 82
2020-03-15 10:00:00 15.8 15 Nordeste 19 Nordeste 0 -- -- 86
2020-03-15 09:00:00 15.2 7 Norte 10 Norte 0 -- -- 83
2020-03-15 08:00:00 15 4 Norte 10 Nordeste 0 -- -- 80
2020-03-15 07:00:00 15.3 4 Norte 13 Noroeste 0 -- -- 79
2020-03-15 06:00:00 14.5 8 Norte 18 Norte 0 -- -- 80
2020-03-15 05:00:00 14.5 6 Noroeste 17 Norte 0 -- -- 80
2020-03-15 04:00:00 14.5 12 Norte 19 Norte 0 -- -- 81
2020-03-15 03:00:00 14.6 6 Norte 11 Norte 0 -- -- 84
2020-03-15 02:00:00 14.3 7 Norte 11 Norte 0 -- -- 84
2020-03-15 01:00:00 14 6 Norte 13 Norte 0 -- -- 87
2020-03-15 00:00:00 14.2 7 Norte 10 Norte 0 -- -- 87
2020-03-14 23:00:00 14.6 5 Norte 9 Noroeste 0 -- -- 85
2020-03-14 22:00:00 14.8 6 Norte 9 Noroeste 0 -- -- 85
2020-03-14 21:00:00 15.7 4 Norte 6 Nordeste 0 -- -- 84
2020-03-14 20:00:00 15.9 5 Nordeste 6 Nordeste 0 -- -- 85
2020-03-14 19:00:00 16.7 4 Este 6 Este 0 -- -- 83
2020-03-14 18:00:00 16.8 4 Este 6 Sudeste 0 -- -- 81
2020-03-14 17:00:00 17.5 5 Este 8 Este 0 -- -- 80
2020-03-14 16:00:00 17.6 7 Este 13 Este 0 -- -- 80
2020-03-14 15:00:00 17.1 10 Este 15 Este 0 -- -- 81
2020-03-14 14:00:00 17.1 11 Este 15 Este 0 -- -- 80
2020-03-14 13:00:00 17.6 7 Este 14 Este 0 -- -- 78
2020-03-14 12:00:00 17.3 10 Este 14 Este 0 -- -- 77
2020-03-14 11:00:00 17.6 8 Este 13 Este 0 -- -- 74
2020-03-14 10:00:00 18.3 2 Este 9 Noroeste 0 -- -- 66
2020-03-14 09:00:00 16.3 9 Noroeste 13 Norte 0 -- -- 72
2020-03-14 08:00:00 14 8 Norte 15 Norte 0 -- -- 80
2020-03-14 07:00:00 13.2 12 Norte 18 Noroeste 0 -- -- 82
2020-03-14 06:00:00 13.2 9 Norte 14 Norte 0 -- -- 86
2020-03-14 05:00:00 13.7 8 Norte 13 Norte 0 -- -- 87
2020-03-14 04:00:00 14.2 6 Norte 10 Norte 0 -- -- 87
2020-03-14 03:00:00 14.7 4 Norte 5 Norte 0 -- -- 88
2020-03-14 02:00:00 14.8 4 Noroeste 6 Noroeste 0 -- -- 87
2020-03-14 01:00:00 15.4 3 Noroeste 8 Nordeste 0 -- -- 88
2020-03-14 00:00:00 15.5 3 Nordeste 22 Este 0 -- -- 88
2020-03-13 23:00:00 16.1 17 Este 23 Este 0 -- -- 92
2020-03-13 22:00:00 16.5 0 Calma 8 Noroeste 0 -- -- 84
2020-03-13 21:00:00 16.7 10 Nordeste 25 Este 0 -- -- 84
2020-03-13 20:00:00 16.2 21 Este 28 Este 0 -- -- 90
2020-03-13 19:00:00 17.1 8 Este 21 Este 0 -- -- 81
2020-03-13 18:00:00 17.7 14 Nordeste 21 Este 0 -- -- 77
2020-03-13 17:00:00 18.3 18 Este 22 Este 0 -- -- 80
2020-03-13 16:00:00 19 15 Este 19 Este 0 -- -- 73
2020-03-13 15:00:00 19.7 3 Sudeste 8 Sudoeste 0 -- -- 68
2020-03-13 14:00:00 19.5 4 Sur 8 Sudeste 0 -- -- 69
2020-03-13 13:00:00 19.1 6 Este 9 Este 0 -- -- 72
2020-03-13 12:00:00 18.7 4 Este 7 Este 0 -- -- 68
2020-03-13 11:00:00 17.3 4 Sur 8 Sudeste 0 -- -- 73
2020-03-13 10:00:00 16.7 3 Sudeste 5 Este 0 -- -- 67
2020-03-13 09:00:00 16.7 2 Nordeste 4 Nordeste 0 -- -- 66
2020-03-13 08:00:00 14.1 0 Calma 5 Oeste 0 -- -- 75
2020-03-13 07:00:00 13.9 0 Calma 7 Norte 0 -- -- 71
2020-03-13 06:00:00 14.2 0 Calma 8 Norte 0 -- -- 70
2020-03-13 05:00:00 14.2 0 Calma 7 Sudoeste 0 -- -- 73
2020-03-13 04:00:00 14.4 5 Norte 10 Noroeste 0 -- -- 68
2020-03-13 03:00:00 14.6 3 Oeste 7 Norte 0 -- -- 70
2020-03-13 02:00:00 15.1 3 Norte 6 Oeste 0 -- -- 71
2020-03-13 01:00:00 16.2 3 Noroeste 9 Norte 0 -- -- 67
2020-03-13 00:00:00 16.4 5 Norte 10 Norte 0 -- -- 64
2020-03-12 23:00:00 16.6 9 Nordeste 12 Nordeste 0 -- -- 63
2020-03-12 22:00:00 16.5 3 Nordeste 5 Nordeste 0 -- -- 69
2020-03-12 21:00:00 17.3 0 Calma 3 Sudeste 0 -- -- 62
2020-03-12 20:00:00 18.1 2 Noroeste 8 Oeste 0 -- -- 59
2020-03-12 19:00:00 18.2 8 Oeste 13 Sudoeste 0 -- -- 69
2020-03-12 18:00:00 18.9 12 Sudoeste 14 Sudoeste 0 -- -- 63
2020-03-12 17:00:00 19.5 11 Sudoeste 17 Sudoeste 0 -- -- 68
2020-03-12 16:00:00 21.1 10 Sudoeste 18 Sudoeste 0 -- -- 62
2020-03-12 15:00:00 19.7 14 Sudoeste 17 Sudoeste 0 -- -- 65
2020-03-12 14:00:00 19.8 8 Sudoeste 12 Sudoeste 0 -- -- 67
2020-03-12 13:00:00 21.5 7 Sudoeste 9 Sudoeste 0 -- -- 66
2020-03-12 12:00:00 19.4 9 Sudoeste 16 Sudoeste 0 -- -- 68
2020-03-12 11:00:00 19 8 Sudoeste 13 Sudoeste 0 -- -- 71
2020-03-12 10:00:00 18.2 8 Sudoeste 10 Sudoeste 0 -- -- 71
2020-03-12 09:00:00 18.1 7 Noroeste 17 Norte 0 -- -- 58
2020-03-12 08:00:00 16.4 4 Norte 10 Noroeste 0 -- -- 55
2020-03-12 07:00:00 16.6 7 Noroeste 16 Noroeste 0 -- -- 53
2020-03-12 06:00:00 16.2 10 Norte 17 Noroeste 0 -- -- 55
2020-03-12 05:00:00 15.8 3 Norte 12 Nordeste 0 -- -- 59
2020-03-12 04:00:00 16.2 9 Norte 15 Norte 0 -- -- 55
2020-03-12 03:00:00 15.8 11 Norte 20 Noroeste 0 -- -- 59
2020-03-12 02:00:00 15.6 12 Norte 17 Noroeste 0 -- -- 62
2020-03-12 01:00:00 15 9 Noroeste 13 Norte 0 -- -- 67
2020-03-12 00:00:00 15.1 5 Norte 9 Noroeste 0 -- -- 69
2020-03-11 23:00:00 15.7 3 Oeste 13 Noroeste 0 -- -- 69
2020-03-11 22:00:00 15.9 6 Norte 9 Norte 0 -- -- 69
2020-03-11 21:00:00 16.6 0 Calma 11 Sudoeste 0 -- -- 68
2020-03-11 20:00:00 17.2 8 Sudoeste 9 Sudoeste 0 -- -- 76
2020-03-11 19:00:00 17.6 6 Oeste 20 Sudoeste 0 -- -- 73
2020-03-11 18:00:00 18.2 14 Sudoeste 24 Oeste 0 -- -- 70
2020-03-11 17:00:00 18.6 15 Sur 30 Este 0 -- -- 69
2020-03-11 16:00:00 18.4 26 Este 33 Este 0 -- -- 65
2020-03-11 15:00:00 18.1 29 Este 35 Este 0 -- -- 64
2020-03-11 14:00:00 18.2 23 Este 31 Este 0 -- -- 62
2020-03-11 13:00:00 18.4 9 Nordeste 16 Nordeste 0 -- -- 59
2020-03-11 12:00:00 18.6 10 Este 14 Este 0 -- -- 58
2020-03-11 11:00:00 18.1 4 Sur 9 Sudeste 0 -- -- 54
2020-03-11 10:00:00 19 3 Sudoeste 4 Sur 0 -- -- 53
2020-03-11 09:00:00 20.2 0 Calma 9 Sudoeste 0 -- -- 43
2020-03-11 08:00:00 13.8 7 Noroeste 10 Noroeste 0 -- -- 63
2020-03-11 07:00:00 13.4 7 Noroeste 16 Noroeste 0 -- -- 61
2020-03-11 06:00:00 13.8 12 Noroeste 17 Noroeste 0 -- -- 59
2020-03-11 05:00:00 13.8 14 Noroeste 19 Norte 0 -- -- 60
2020-03-11 04:00:00 13.7 13 Norte 19 Norte 0 -- -- 62
2020-03-11 03:00:00 14.2 13 Norte 18 Norte 0 -- -- 60
2020-03-11 02:00:00 14.5 11 Noroeste 21 Norte 0 -- -- 59
2020-03-11 01:00:00 14.2 12 Norte 17 Norte 0 -- -- 62
2020-03-11 00:00:00 14.8 10 Noroeste 15 Norte 0 -- -- 60
2020-03-10 23:00:00 14.9 11 Norte 18 Norte 0 -- -- 62
2020-03-10 22:00:00 15.2 10 Norte 15 Norte 0 -- -- 61
2020-03-10 21:00:00 16.2 7 Norte 13 Nordeste 0 -- -- 58
2020-03-10 20:00:00 17 8 Nordeste 17 Este 0 -- -- 56
2020-03-10 19:00:00 17 15 Este 21 Este 0 -- -- 63
2020-03-10 18:00:00 17.2 17 Este 25 Sudeste 0 -- -- 62
2020-03-10 17:00:00 17.6 21 Sudeste 31 Este 0 -- -- 62
2020-03-10 16:00:00 17.6 26 Este 40 Este 0 -- -- 61
2020-03-10 15:00:00 17.7 32 Este 47 Este 0 -- -- 67
2020-03-10 14:00:00 18.3 36 Este 44 Este 0 -- -- 59
2020-03-10 13:00:00 19.7 20 Este 27 Este 0 -- -- 60
2020-03-10 12:00:00 19.5 2 Sudoeste 14 Sur 0 -- -- 70
2020-03-10 11:00:00 16.8 13 Sur 18 Sur 0 -- -- 76
2020-03-10 10:00:00 22 0 Calma 10 Noroeste 0 -- -- 50
2020-03-10 09:00:00 17.8 4 Noroeste 9 Oeste 0 -- -- 62
2020-03-10 08:00:00 15.6 3 Oeste 11 Sudeste 0 -- -- 76
2020-03-10 07:00:00 14.9 0 Calma 10 Nordeste 0 -- -- 68
2020-03-10 06:00:00 14.5 3 Norte 9 Noroeste 0 -- -- 63
2020-03-10 05:00:00 15.4 3 Noroeste 10 Nordeste 0 -- -- 56
2020-03-10 04:00:00 16 5 Norte 16 Nordeste 0 -- -- 56
2020-03-10 03:00:00 19.2 6 Este 23 Sudeste 0 -- -- 49
2020-03-10 02:00:00 16.4 10 Norte 18 Norte 0 -- -- 49
2020-03-10 01:00:00 16.6 13 Noroeste 17 Norte 0 -- -- 49
2020-03-10 00:00:00 15.9 10 Norte 15 Noroeste 0 -- -- 60
2020-03-09 23:00:00 16.3 6 Norte 17 Oeste 0 -- -- 68
2020-03-09 22:00:00 16.4 3 Este 13 Norte 0 -- -- 77
2020-03-09 21:00:00 16.3 5 Oeste 12 Sur 0 -- -- 87
2020-03-09 20:00:00 16.4 0 Calma 8 Nordeste 0 -- -- 86
2020-03-09 19:00:00 16.9 6 Nordeste 12 Nordeste 0 -- -- 84
2020-03-09 18:00:00 18 3 Nordeste 7 Este 0 -- -- 79
2020-03-09 17:00:00 17.8 4 Sudeste 9 Este 0 -- -- 80
2020-03-09 16:00:00 18.4 4 Sudeste 8 Sur 0 -- -- 75
2020-03-09 15:00:00 17.7 5 Sur 10 Sudoeste 0 -- -- 77
2020-03-09 14:00:00 18.9 8 Sudoeste 16 Sudoeste 0 -- -- 75
2020-03-09 13:00:00 18.3 10 Sudoeste 13 Sudoeste 0 -- -- 68
2020-03-09 12:00:00 17.9 8 Sudoeste 13 Sudoeste 0 -- -- 66
2020-03-09 11:00:00 19.8 3 Sudeste 12 Sudoeste 0 -- -- 40
2020-03-09 10:00:00 18.9 2 Este 10 Sur 0 -- -- 51
2020-03-09 09:00:00 17 3 Este 8 Norte 0 -- -- 55
2020-03-09 08:00:00 13.5 3 Norte 11 Noroeste 0 -- -- 55
2020-03-09 07:00:00 12.9 3 Oeste 12 Oeste 0 -- -- 61
2020-03-09 06:00:00 13 3 Norte 10 Norte 0 -- -- 76
2020-03-09 05:00:00 13.7 5 Oeste 13 Noroeste 0 -- -- 70
2020-03-09 04:00:00 13.3 0 Calma 7 Sudoeste 0 -- -- 80
2020-03-09 03:00:00 13 2 Oeste 6 Noroeste 0 -- -- 72
2020-03-09 02:00:00 13.3 4 Noroeste 9 Noroeste 0 -- -- 77
2020-03-09 01:00:00 13.9 5 Norte 9 Noroeste 0 -- -- 81
2020-03-09 00:00:00 14.7 0 Calma 5 Sudoeste 0 -- -- 82
2020-03-08 23:00:00 15 2 Oeste 6 Sudoeste 0 -- -- 83
2020-03-08 22:00:00 14.8 0 Calma 6 Sur 0 -- -- 83
2020-03-08 21:00:00 15.8 5 Sudoeste 10 Oeste 0 -- -- 80
2020-03-08 20:00:00 15.5 9 Oeste 17 Sudoeste 0 -- -- 85
2020-03-08 19:00:00 15.8 15 Sudoeste 18 Sudoeste 0 -- -- 86
2020-03-08 18:00:00 16.3 13 Sudoeste 15 Sudoeste 0 -- -- 83
2020-03-08 17:00:00 16.8 11 Sudoeste 13 Sudoeste 0 -- -- 81
2020-03-08 16:00:00 16.2 10 Sudoeste 13 Sudoeste 0 -- -- 81
2020-03-08 15:00:00 16 9 Sudoeste 11 Sur 0 -- -- 79
2020-03-08 14:00:00 16.1 8 Sudoeste 10 Sudoeste 0 -- -- 76
2020-03-08 13:00:00 15.7 8 Sur 12 Sur 0 -- -- 74
2020-03-08 12:00:00 15.6 9 Sur 12 Sur 0 -- -- 69
2020-03-08 11:00:00 16 6 Sur 8 Sur 0 -- -- 65
2020-03-08 10:00:00 18.5 2 Norte 15 Norte 0 -- -- 43
2020-03-08 09:00:00 13.7 12 Noroeste 19 Norte 0 -- -- 51
2020-03-08 08:00:00 10.5 13 Norte 18 Norte 0 -- -- 63
2020-03-08 07:00:00 10.9 13 Noroeste 17 Noroeste 0 -- -- 60
2020-03-08 06:00:00 11.1 11 Noroeste 18 Noroeste 0 -- -- 59
2020-03-08 05:00:00 10.9 9 Norte 13 Noroeste 0 -- -- 64
2020-03-08 04:00:00 11.6 8 Norte 14 Norte 0 -- -- 61
2020-03-08 03:00:00 11.4 9 Norte 12 Norte 0 -- -- 68
2020-03-08 02:00:00 12 5 Noroeste 9 Noroeste 0 -- -- 68
2020-03-08 01:00:00 12.1 6 Norte 13 Norte 0 -- -- 68
2020-03-08 00:00:00 12.5 3 Noroeste 9 Norte 0 -- -- 63
2020-03-07 23:00:00 13.1 5 Norte 9 Noroeste 0 -- -- 66
2020-03-07 22:00:00 13.6 5 Norte 9 Norte 0 -- -- 70
2020-03-07 21:00:00 14.9 3 Norte 11 Sudoeste 0 -- -- 78
2020-03-07 20:00:00 15.6 7 Sudoeste 17 Oeste 0 -- -- 75
2020-03-07 19:00:00 15.8 7 Sudoeste 12 Sudoeste 0 -- -- 73
2020-03-07 18:00:00 16.1 7 Sudoeste 12 Sudoeste 0 -- -- 73
2020-03-07 17:00:00 17.2 5 Sudoeste 7 Sudoeste 0 -- -- 68
2020-03-07 16:00:00 17 3 Sur 8 Sur 0 -- -- 62
2020-03-07 15:00:00 17.7 4 Sur 15 Sudoeste 0 -- -- 60
2020-03-07 14:00:00 17.3 9 Sudoeste 23 Sudeste 0 -- -- 63
2020-03-07 13:00:00 16.7 15 Sudeste 19 Sudeste 0 -- -- 69
2020-03-07 12:00:00 19 15 Este 24 Este 0 -- -- 41
2020-03-07 11:00:00 18.8 5 Este 18 Nordeste 0 -- -- 36
2020-03-07 10:00:00 19.8 3 Nordeste 23 Norte 0 -- -- 32
2020-03-07 09:00:00 17.6 8 Norte 22 Norte 0 -- -- 36
2020-03-07 08:00:00 14.6 11 Norte 22 Norte 0 -- -- 44
2020-03-07 07:00:00 14.3 9 Norte 17 Norte 0 -- -- 44
2020-03-07 06:00:00 14.7 5 Norte 12 Norte 0 -- -- 42
2020-03-07 05:00:00 15.6 11 Norte 27 Noroeste 0 -- -- 39
2020-03-07 04:00:00 15.2 10 Norte 36 Noroeste 0 -- -- 44
2020-03-07 03:00:00 15 4 Noroeste 14 Norte 0 -- -- 46
2020-03-07 02:00:00 14.1 5 Nordeste 9 Oeste 0 -- -- 58
2020-03-07 01:00:00 15.3 6 Noroeste 18 Este 0 -- -- 46
2020-03-07 00:00:00 16.7 7 Norte 18 Norte 0 -- -- 47
2020-03-06 23:00:00 16.6 5 Noroeste 26 Norte 0 -- -- 43
2020-03-06 22:00:00 17.4 10 Noroeste 31 Noroeste 0 -- -- 41
2020-03-06 21:00:00 17.8 12 Noroeste 32 Noroeste 0 -- -- 41
2020-03-06 20:00:00 17.8 9 Noroeste 27 Noroeste 0 -- -- 41
2020-03-06 19:00:00 18.9 13 Noroeste 33 Oeste 0 -- -- 37
2020-03-06 18:00:00 20 14 Oeste 35 Oeste 0 -- -- 37
2020-03-06 17:00:00 20.8 15 Noroeste 44 Oeste 0 -- -- 37
2020-03-06 16:00:00 21.1 18 Oeste 39 Oeste 0 -- -- 33
2020-03-06 15:00:00 21.2 13 Noroeste 43 Oeste 0 -- -- 34
2020-03-06 14:00:00 20.4 14 Noroeste 30 Oeste 0 -- -- 34
2020-03-06 13:00:00 18.9 18 Oeste 33 Oeste 0 -- -- 38
2020-03-06 12:00:00 18.2 15 Noroeste 33 Oeste 0 -- -- 42
2020-03-06 11:00:00 18 12 Noroeste 33 Oeste 0 -- -- 46
2020-03-06 10:00:00 17.6 4 Nordeste 12 Nordeste 0 -- -- 51
2020-03-06 09:00:00 18 0 Calma 13 Norte 0 -- -- 43
2020-03-06 08:00:00 13.7 3 Norte 15 Noroeste 0 -- -- 53
2020-03-06 07:00:00 13 5 Norte 18 Noroeste 0 -- -- 52
2020-03-06 06:00:00 14 10 Noroeste 23 Norte 0 -- -- 46
2020-03-06 05:00:00 14.5 9 Noroeste 18 Noroeste 0 -- -- 45
2020-03-06 04:00:00 14.2 9 Oeste 25 Noroeste 0 -- -- 48
2020-03-06 03:00:00 15.1 10 Noroeste 33 Noroeste 0 -- -- 48
2020-03-06 02:00:00 15.6 11 Noroeste 28 Noroeste 0 -- -- 50
2020-03-06 01:00:00 16.3 14 Noroeste 24 Noroeste 0 -- -- 48
2020-03-06 00:00:00 16.2 7 Noroeste 26 Oeste 0 -- -- 50
2020-03-05 23:00:00 16.5 15 Oeste 29 Oeste 0 -- -- 54
2020-03-05 22:00:00 16.6 13 Oeste 22 Oeste 0 -- -- 53
2020-03-05 21:00:00 17.3 9 Oeste 31 Norte 0 -- -- 50
2020-03-05 20:00:00 18 17 Noroeste 31 Noroeste 0 -- -- 47
2020-03-05 19:00:00 17.6 21 Oeste 37 Sudoeste 0 -- -- 61
2020-03-05 18:00:00 17.9 27 Sudoeste 47 Sudoeste 0 -- -- 65
2020-03-05 17:00:00 18 40 Sudoeste 54 Sudoeste 0 -- -- 70
2020-03-05 16:00:00 17.6 39 Sudoeste 54 Sudoeste 0 -- -- 72
2020-03-05 15:00:00 17.7 40 Sudoeste 54 Sudoeste 0 -- -- 70
2020-03-05 14:00:00 18.7 38 Sudoeste 60 Oeste 0 -- -- 67
2020-03-05 13:00:00 19.7 34 Oeste 49 Oeste 0 -- -- 61
2020-03-05 12:00:00 20.3 8 Este 46 Sudoeste 0 -- -- 60
2020-03-05 11:00:00 16.5 36 Sudoeste 46 Sudoeste 0 -- -- 76
2020-03-05 10:00:00 16.8 4 Sur 8 Norte 0 -- -- 62
2020-03-05 09:00:00 17.7 2 Nordeste 10 Norte 0 -- -- 58
2020-03-05 08:00:00 13.2 5 Noroeste 13 Oeste 0 -- -- 70
2020-03-05 07:00:00 12.9 0 Calma 9 Norte 0 -- -- 76
2020-03-05 06:00:00 13.3 6 Norte 9 Norte 0 -- -- 73
2020-03-05 05:00:00 13.9 2 Oeste 12 Noroeste 0 -- -- 74
2020-03-05 04:00:00 14 2 Sudoeste 12 Noroeste 0 -- -- 75
2020-03-05 03:00:00 15.3 10 Norte 17 Norte 0 -- -- 68
2020-03-05 02:00:00 14.5 2 Noroeste 8 Oeste 0 -- -- 72
2020-03-05 01:00:00 14.9 4 Sudoeste 10 Noroeste 0 -- -- 73
2020-03-05 00:00:00 15.9 6 Norte 10 Noroeste 0 -- -- 66
2020-03-04 23:00:00 15.8 3 Oeste 12 Noroeste 0 -- -- 71
2020-03-04 22:00:00 16.8 6 Norte 13 Norte 0 -- -- 67
2020-03-04 21:00:00 17.3 9 Norte 12 Norte 0 -- -- 67
2020-03-04 20:00:00 17.9 5 Noroeste 9 Norte 0 -- -- 69
2020-03-04 19:00:00 18 5 Nordeste 17 Este 0 -- -- 76
2020-03-04 18:00:00 18.9 15 Este 19 Este 0 -- -- 72
2020-03-04 17:00:00 19.5 9 Nordeste 14 Nordeste 0 -- -- 69
2020-03-04 16:00:00 19.6 6 Este 15 Este 0 -- -- 70
2020-03-04 15:00:00 19.6 8 Nordeste 16 Nordeste 0 -- -- 69
2020-03-04 14:00:00 18.4 13 Este 17 Nordeste 0 -- -- 68
2020-03-04 13:00:00 18.4 7 Nordeste 12 Nordeste 0 -- -- 73
2020-03-04 12:00:00 19.4 6 Sudoeste 10 Sudoeste 0 -- -- 69
2020-03-04 11:00:00 18 4 Sudoeste 8 Sur 0 -- -- 69
2020-03-04 10:00:00 17.8 0 Calma 5 Noroeste 0 -- -- 62
2020-03-04 09:00:00 16.7 5 Norte 14 Norte 0 -- -- 69
2020-03-04 08:00:00 13 8 Norte 12 Noroeste 0 -- -- 78
2020-03-04 07:00:00 12.9 4 Noroeste 12 Norte 0 -- -- 77
2020-03-04 06:00:00 13.1 3 Norte 10 Norte 0 -- -- 77
2020-03-04 05:00:00 13.6 8 Norte 14 Noroeste 0 -- -- 75
2020-03-04 04:00:00 13.9 5 Noroeste 15 Norte 0 -- -- 75
2020-03-04 03:00:00 14 7 Norte 16 Norte 0 -- -- 75
2020-03-04 02:00:00 14.5 7 Norte 27 Sudoeste 0 -- -- 75
2020-03-04 01:00:00 15.7 21 Oeste 37 Sudoeste 0 -- -- 84
2020-03-04 00:00:00 16.3 15 Oeste 22 Oeste 0 -- -- 75